Retour au catalogue

SL-12 R/B(2)

ActifGEO
NORAD 23111·ROCKET BODY·🇷🇺 Russia

Lancé May 20, 1994 depuis Baikonur Cosmodrome

Loading…

TLE

FraisSource: Space-Track

Époque: Aug 31, 2026, 23:05 UTC

1 23111U 94030D   26243.96216296 -.00000054  00000-0  00000+0 0  9991
2 23111  12.5501 342.4722 0045168 195.9286 155.6982  1.03837721122443

Suivez SL-12 R/B(2) en temps réel avec AllMySat

Download on the App Store